Погода в Новоархангельском

Россия / Томская область     56°42′43″N   85°53′48″E
темп.,
°C
ветер,
м/с
пор.,
м/с
влажн.,
%
обл.,
%
осадки,
мм/ч
давл.,
гПа
погр.,
м
7 мая, пт
пт701:00+14ю4872100 0.0 1000133
04:00+14ююз31077100 0.0 999192
07:00+13сз61283100 0.1 1001569
10:00+14зсз7964100 0.1 1003899
13:00+16зсз7104214 0.1 10052173
16:00+14сз6104892 0.0 10071836
19:00+15зсз5103989 0.0 10082347
22:00+11з5114788 0.0 1011543
8 мая, сб
сб801:00+8з510610 0.0 1014336
04:00+6зюз486898 0.0 1014168
07:00+7зюз613645 0.0 1015567
10:00+12з8144087 0.0 10142110
13:00+14з9133439 0.0 10122444
16:00+16зсз81234100 0.0 10102653
19:00+12с575198 0.1 10131054
22:00+7с477099 0.0 1015268
9 мая, вс
вс901:00+5сз49755 0.0 1016336
04:00+2сз48815 0.0 1017263
07:00+3сз47805 0.0 1019328
10:00+7ссз4557100 0.0 10201218
13:00+10с464399 0.0 10201931
16:00+11с674781 0.0 10201890
19:00+9с665410 0.0 10221258
22:00+5ссв48745 0.0 1024272
10 мая, пн
пн1001:00+4ссв36745 0.0 1024130
04:00+2всв34845 0.0 102472
07:00+4всв38776 0.0 1024274
10:00+8всв46566 0.0 10231189
13:00+12всв574651 0.0 10211776
16:00+12всв684874 0.0 10201777
19:00+11св695696 0.0 1019870
22:00+8св497112 0.0 1019199
11 мая, вт
вт1101:00+6св411745 0.0 1019212
04:00+5св411765 0.0 1019217
07:00+6св512730 0.0 1019372
10:00+11всв710495 0.0 10191338
13:00+14всв78405 0.0 10181893
16:00+16всв783650 0.0 10172291
19:00+15всв574065 0.0 10172014
22:00+9св39560 0.0 1018152